LEZL

Sevilla/San Pablo Airport

Airport
ICAO code
LEZL
IATA Code
SVQ
Summary
ICAO Region
EUR
ICAO Territory
Location

Sevilla, Andalusia

Serving
Sevilla
Elevation
112 ft
Coordinates
37° 25' 8" N , 5° 53' 54" W
KCC
Airport WX
Cumulonimbus
Metar
LEZL 151830Z 22010KT CAVOK 26/16 Q1016 NOSIG

Seville/San Pablo Airport is the main airport for Seville and is Andalusia’s second airport, behind Málaga. Also known as San Pablo Airport, it is located 10 km northwest of Seville.

Climatology

Dry-summer subtropical ”Mediterranean" climate (Köppen climate classification Csa) - characterized by hot, dry summers and mild winters. During the summer, subtropical high pressure cells dominate, making rainfall unlikely except for the occasional thunderstorm. In the winter, periodic storms bring rain.

Runways

Designator Length Width Surface Rops
9/27 3360 45 ASP Yes/Yes

Airport map

Aerial View

SKYbrary Partners:

Safety knowledge contributed by: